Meteo orario Aarberg

Oggi, 20 Giugno, Domenica

Tempo Temperatura Precipitazioni Vento Pressione Umidità
00:00 +20°C° 0 mm 2 m/s 715 mm Hg 84%
01:00 +19°C° 0 mm 2 m/s 715 mm Hg 86%
02:00 +20°C° 0 mm 1 m/s 715 mm Hg 88%
03:00 +19°C° 0 mm 1 m/s 715 mm Hg 89%
04:00 +20°C° 0 mm 1 m/s 715 mm Hg 87%
05:00 +20°C° 0 mm 1 m/s 715 mm Hg 85%
06:00 +21°C° 0 mm 1 m/s 715 mm Hg 86%
07:00 +22°C° 0 mm 1 m/s 715 mm Hg 79%
08:00 +24°C° 0 mm 1 m/s 715 mm Hg 73%
09:00 +25°C° 0 mm 2 m/s 714 mm Hg 67%
10:00 +26°C° 0 mm 2 m/s 714 mm Hg 63%
11:00 +28°C° 0 mm 2 m/s 713 mm Hg 59%
12:00 +29°C° 0 mm 3 m/s 712 mm Hg 55%
13:00 +27°C° 1.9 mm 3 m/s 712 mm Hg 64%
14:00 +25°C° 1.9 mm 3 m/s 712 mm Hg 73%
15:00 +24°C° 1.9 mm 3 m/s 711 mm Hg 83%
16:00 +21°C° 3.1 mm 2 m/s 711 mm Hg 86%
17:00 +20°C° 3.1 mm 2 m/s 711 mm Hg 90%
18:00 +20°C° 3.1 mm 1 m/s 711 mm Hg 94%
19:00 +19°C° 0.4 mm 1 m/s 711 mm Hg 95%
20:00 +19°C° 0.4 mm 1 m/s 712 mm Hg 95%
21:00 +18°C° 0.4 mm 1 m/s 712 mm Hg 96%
22:00 +18°C° 0.2 mm 1 m/s 712 mm Hg 95%
23:00 +18°C° 0.2 mm 1 m/s 712 mm Hg 95%

Domani, 21 Giugno, Lunedi

Tempo Temperatura Precipitazioni Vento Pressione Umidità
00:00 +18°C° 0.2 mm 1 m/s 712 mm Hg 95%
01:00 +16°C° 0.1 mm 1 m/s 712 mm Hg 94%
02:00 +16°C° 0.1 mm 1 m/s 712 mm Hg 94%
03:00 +15°C° 0.1 mm 1 m/s 712 mm Hg 93%
04:00 +16°C° 0 mm 1 m/s 712 mm Hg 91%
05:00 +16°C° 0 mm 0 m/s 713 mm Hg 90%
06:00 +17°C° 0 mm 0 m/s 713 mm Hg 88%
07:00 +19°C° 0.1 mm 0 m/s 713 mm Hg 80%
08:00 +20°C° 0.1 mm 0 m/s 713 mm Hg 73%
09:00 +24°C° 0.1 mm 1 m/s 713 mm Hg 65%
10:00 +25°C° 0.2 mm 1 m/s 713 mm Hg 63%
11:00 +26°C° 0.2 mm 1 m/s 713 mm Hg 60%
12:00 +27°C° 0.2 mm 1 m/s 713 mm Hg 57%
13:00 +26°C° 0.8 mm 1 m/s 713 mm Hg 63%
14:00 +25°C° 0.8 mm 1 m/s 712 mm Hg 69%
15:00 +24°C° 0.8 mm 1 m/s 712 mm Hg 75%
16:00 +23°C° 1 mm 1 m/s 712 mm Hg 80%
17:00 +22°C° 1 mm 1 m/s 712 mm Hg 85%
18:00 +21°C° 1 mm 1 m/s 712 mm Hg 91%
19:00 +20°C° 0.8 mm 1 m/s 713 mm Hg 92%
20:00 +19°C° 0.8 mm 1 m/s 713 mm Hg 93%
21:00 +18°C° 0.8 mm 1 m/s 713 mm Hg 94%
22:00 +18°C° 0.4 mm 1 m/s 713 mm Hg 94%
23:00 +16°C° 0.4 mm 1 m/s 713 mm Hg 95%

Dopodomani, 22 Giugno, Martedi

Tempo Temperatura Precipitazioni Vento Pressione Umidità
00:00 +16°C° 0.4 mm 1 m/s 714 mm Hg 95%
01:00 +16°C° 0.1 mm 1 m/s 713 mm Hg 94%
02:00 +16°C° 0.1 mm 1 m/s 713 mm Hg 94%
03:00 +15°C° 0.1 mm 0 m/s 713 mm Hg 94%
04:00 +16°C° 0.1 mm 0 m/s 713 mm Hg 93%
05:00 +16°C° 0.1 mm 0 m/s 714 mm Hg 93%
06:00 +16°C° 0.1 mm 0 m/s 714 mm Hg 93%
07:00 +17°C° 0.4 mm 0 m/s 714 mm Hg 90%
08:00 +20°C° 0.4 mm 1 m/s 714 mm Hg 86%
09:00 +21°C° 0.4 mm 1 m/s 714 mm Hg 83%
10:00 +22°C° 0.9 mm 1 m/s 714 mm Hg 80%
11:00 +22°C° 0.9 mm 1 m/s 715 mm Hg 78%
12:00 +23°C° 0.9 mm 1 m/s 715 mm Hg 75%
13:00 +23°C° 1 mm 1 m/s 715 mm Hg 77%
14:00 +23°C° 1 mm 1 m/s 715 mm Hg 78%
15:00 +23°C° 1 mm 1 m/s 715 mm Hg 79%
16:00 +22°C° 1.3 mm 1 m/s 716 mm Hg 83%
17:00 +21°C° 1.3 mm 1 m/s 716 mm Hg 86%
18:00 +19°C° 1.3 mm 0 m/s 716 mm Hg 90%
19:00 +18°C° 1.2 mm 0 m/s 716 mm Hg 91%
20:00 +19°C° 1.2 mm 1 m/s 717 mm Hg 93%
21:00 +16°C° 1.2 mm 1 m/s 717 mm Hg 95%
22:00 +16°C° 0.7 mm 1 m/s 717 mm Hg 95%
23:00 +16°C° 0.7 mm 1 m/s 717 mm Hg 96%

23 Giugno, Mercoledi

Tempo Temperatura Precipitazioni Vento Pressione Umidità
00:00 +16°C° 0.7 mm 1 m/s 717 mm Hg 96%
01:00 +16°C° 0.1 mm 1 m/s 717 mm Hg 96%
02:00 +16°C° 0.1 mm 1 m/s 717 mm Hg 95%
03:00 +16°C° 0.1 mm 1 m/s 717 mm Hg 95%
04:00 +16°C° 0 mm 1 m/s 717 mm Hg 94%
05:00 +18°C° 0 mm 1 m/s 717 mm Hg 93%
06:00 +18°C° 0 mm 1 m/s 717 mm Hg 92%
07:00 +20°C° 0.1 mm 1 m/s 717 mm Hg 85%
08:00 +20°C° 0.1 mm 2 m/s 717 mm Hg 78%
09:00 +23°C° 0.1 mm 2 m/s 717 mm Hg 71%
10:00 +24°C° 0.2 mm 2 m/s 717 mm Hg 66%
11:00 +25°C° 0.2 mm 3 m/s 717 mm Hg 61%
12:00 +26°C° 0.2 mm 3 m/s 717 mm Hg 57%
13:00 +26°C° 0.3 mm 3 m/s 717 mm Hg 59%
14:00 +25°C° 0.3 mm 3 m/s 717 mm Hg 62%
15:00 +25°C° 0.3 mm 3 m/s 716 mm Hg 65%
16:00 +22°C° 2.4 mm 3 m/s 716 mm Hg 74%
17:00 +21°C° 2.4 mm 2 m/s 716 mm Hg 83%
18:00 +19°C° 2.4 mm 2 m/s 716 mm Hg 92%
19:00 +18°C° 2.1 mm 2 m/s 717 mm Hg 94%
20:00 +18°C° 2.1 mm 1 m/s 717 mm Hg 95%
21:00 +16°C° 2.1 mm 1 m/s 718 mm Hg 96%
22:00 +16°C° 0.8 mm 1 m/s 718 mm Hg 96%
23:00 +16°C° 0.8 mm 1 m/s 718 mm Hg 96%

24 Giugno, Giovedi

Tempo Temperatura Precipitazioni Vento Pressione Umidità
00:00 +16°C° 0.8 mm 1 m/s 718 mm Hg 95%
01:00 +15°C° 0.1 mm 1 m/s 718 mm Hg 95%
02:00 +14°C° 0.1 mm 0 m/s 718 mm Hg 95%
03:00 +14°C° 0.1 mm 0 m/s 718 mm Hg 95%
04:00 +14°C° 0 mm 0 m/s 718 mm Hg 94%
05:00 +15°C° 0 mm 0 m/s 718 mm Hg 94%
06:00 +16°C° 0 mm 0 m/s 718 mm Hg 93%
07:00 +17°C° 0.2 mm 0 m/s 718 mm Hg 89%
08:00 +18°C° 0.2 mm 0 m/s 718 mm Hg 85%
09:00 +21°C° 0.2 mm 1 m/s 718 mm Hg 81%
10:00 +21°C° 1.3 mm 1 m/s 718 mm Hg 80%
11:00 +22°C° 1.3 mm 1 m/s 718 mm Hg 80%
12:00 +22°C° 1.3 mm 1 m/s 718 mm Hg 79%
13:00 +21°C° 2 mm 2 m/s 718 mm Hg 82%
14:00 +20°C° 2 mm 2 m/s 719 mm Hg 85%
15:00 +20°C° 2 mm 2 m/s 719 mm Hg 88%
16:00 +19°C° 0.6 mm 2 m/s 719 mm Hg 89%
17:00 +18°C° 0.6 mm 2 m/s 719 mm Hg 89%
18:00 +17°C° 0.6 mm 3 m/s 719 mm Hg 90%
19:00 +16°C° 0.1 mm 2 m/s 720 mm Hg 91%
20:00 +15°C° 0.1 mm 2 m/s 720 mm Hg 92%
21:00 +15°C° 0.1 mm 2 m/s 720 mm Hg 93%
22:00 +15°C° 0.2 mm 2 m/s 720 mm Hg 93%
23:00 +14°C° 0.2 mm 3 m/s 719 mm Hg 93%

25 Giugno, Venerdi

Tempo Temperatura Precipitazioni Vento Pressione Umidità
00:00 +14°C° 0.2 mm 3 m/s 719 mm Hg 94%
01:00 +14°C° 0.4 mm 3 m/s 719 mm Hg 95%
02:00 +13°C° 0.4 mm 3 m/s 719 mm Hg 96%
03:00 +13°C° 0.4 mm 3 m/s 719 mm Hg 96%
04:00 +14°C° 0.6 mm 3 m/s 719 mm Hg 96%
05:00 +15°C° 0.6 mm 2 m/s 719 mm Hg 96%
06:00 +15°C° 0.6 mm 2 m/s 719 mm Hg 96%
07:00 +15°C° 0.8 mm 2 m/s 719 mm Hg 96%
08:00 +15°C° 0.8 mm 1 m/s 719 mm Hg 95%
09:00 +16°C° 0.8 mm 1 m/s 719 mm Hg 94%
10:00 +16°C° 0.4 mm 1 m/s 718 mm Hg 89%
11:00 +18°C° 0.4 mm 1 m/s 718 mm Hg 85%
12:00 +19°C° 0.4 mm 1 m/s 718 mm Hg 80%
13:00 +19°C° 0.5 mm 1 m/s 718 mm Hg 81%
14:00 +18°C° 0.5 mm 2 m/s 717 mm Hg 82%
15:00 +18°C° 0.5 mm 2 m/s 717 mm Hg 83%
16:00 +18°C° 0.6 mm 2 m/s 717 mm Hg 84%
17:00 +17°C° 0.6 mm 2 m/s 717 mm Hg 86%
18:00 +16°C° 0.6 mm 1 m/s 717 mm Hg 88%
19:00 +15°C° 0.1 mm 1 m/s 717 mm Hg 89%
20:00 +14°C° 0.1 mm 1 m/s 717 mm Hg 90%
21:00 +13°C° 0.1 mm 0 m/s 717 mm Hg 92%
22:00 +12°C° 0 mm 0 m/s 717 mm Hg 92%
23:00 +13°C° 0 mm 1 m/s 717 mm Hg 93%
Mostrare altro

Abbiamo bisogno del tuo consenso

Meteoprog e i nostri fornitori di servizi possono memorizzare e accedere a dati personali come cookie, identificatori di dispositivi o altre tecnologie simili sul tuo dispositivo e possono elaborare tali dati per personalizzare i contenuti e gli annunci, nonché fornire funzionalità dei social media e analizzarne il traffico.

  • Archiviare e/o accedere alle informazioni sul tuo dispositivo

    Cookie, identificatori di dispositivi o altre informazioni possono essere memorizzati o resi accessibili sul tuo dispositivo per le finalità sopra indicate.

  • Annunci e contenuti personalizzati, misurazione di annunci e contenuti, approfondimenti sul pubblico e sviluppo di prodotti

    Gli annunci e i contenuti possono essere personalizzati in base a un profilo. È possibile aggiungere più dati per personalizzare meglio annunci e contenuti. È possibile misurare il rendimento degli annunci e dei contenuti. È possibile ricavare informazioni sul pubblico che ha visto gli annunci e i contenuti. Tali dati possono essere utilizzati per sviluppare o migliorare l'esperienza, i sistemi e il software dell'utente.

Cliccando su “Accetto”, acconsenti all'uso di cookie, identificatori di dispositivo, web beacon o altre tecnologie simili. Puoi modificare le impostazioni nel browser del tuo dispositivo.

Per determinati scopi, è possibile fare affidamento su interessi legali, piuttosto che sul consenso. Puoi approfondire questo argomento consultando la nostra Informativa sulla privacy e sui cookie.